Theta_e
344 345 344 346 346 346 347 344 346 346 346 347 347 348 347 343 342 342 344 337 343 342 342 342 340 342 339 339 339 339 338 341 339 338 340 341 340 339 339 339 333 329 321
339 343 345 345 344 345 344 345 344 346 348 347 347 347 346 342 342 343 343 344 339 342 342 343 343 341 342 341 340 340 342 340 340 341 341 338 339 339 338 335 328 324 320
343 343 345 347 345 343 343 344 344 345 347 347 347 346 346 344 342 343 343 344 345 341 338 338 338 338 337 340 343 344 343 342 341 338 337 336 337 337 332 330 326 322 320
344 345 345 344 344 344 344 348 348 348 347 346 346 346 345 343 343 343 343 343 343 345 344 338 337 337 337 339 342 341 339 337 337 336 334 333 332 330 328 327 325 322 321
345 345 345 344 344 345 347 345 348 347 347 347 346 346 345 345 345 343 344 344 345 344 344 342 339 339 339 339 339 338 335 333 330 329 329 330 329 327 325 325 324 322 321
346 345 344 344 344 344 344 344 345 344 346 347 345 346 347 347 347 347 346 345 345 344 345 344 346 345 340 340 341 340 338 332 325 325 327 327 327 325 324 322 323 322 321
345 344 345 345 345 346 345 343 345 347 347 344 347 345 346 346 346 346 346 347 346 346 347 347 347 347 346 340 339 340 340 338 336 331 327 326 326 325 324 323 322 322 322
346 345 343 345 344 347 342 343 342 347 347 343 346 346 345 342 342 342 343 344 346 346 346 347 348 346 344 347 341 339 339 341 341 341 341 338 335 334 332 329 327 325 324
346 346 345 346 344 346 347 344 342 345 347 345 342 346 346 345 344 343 344 343 340 344 343 343 343 343 341 344 342 343 341 340 341 341 341 342 342 342 342 340 338 337 332
348 347 346 346 346 344 343 342 342 343 343 346 345 344 342 345 345 345 345 343 342 342 344 343 344 344 341 342 342 341 341 341 341 341 341 341 341 342 342 343 343 342 340
349 349 348 346 345 346 346 344 342 343 343 344 345 348 347 345 345 346 347 346 346 345 344 343 343 341 340 341 341 341 340 340 341 342 344 346 350 351 351 350 348 345 343
354 351 348 349 346 347 344 346 346 345 347 347 349 349 350 347 346 347 348 349 348 346 345 346 344 342 343 344 344 343 343 346 348 349 351 350 347 344 345 347 350 351 350
352 353 350 347 347 348 348 347 345 346 346 349 348 351 350 350 348 348 346 347 347 347 347 348 347 346 347 346 347 345 348 349 348 352 349 347 344 345 353 356 355 355 357
351 351 349 349 348 348 348 347 350 351 348 349 350 346 352 351 350 349 351 348 346 346 347 348 349 347 349 348 349 349 351 346 351 352 354 346 347 349 355 356 357 358 359
350 347 348 349 349 348 348 349 351 347 347 349 353 349 350 352 351 349 350 350 349 349 347 347 346 348 350 351 352 351 352 346 354 354 346 349 348 352 354 357 359 359 359
347 351 350 350 348 349 349 350 351 349 349 352 352 354 352 351 351 350 348 349 350 351 350 350 349 351 351 352 352 351 352 352 354 345 349 348 350 352 355 358 358 358 355
348 349 350 350 351 349 350 350 351 354 352 355 354 354 354 352 350 350 350 350 351 351 349 346 352 352 351 355 353 351 352 352 351 350 350 347 351 354 356 358 357 353 348
348 348 349 352 354 354 352 350 351 353 350 353 353 354 353 352 353 353 353 354 352 354 353 352 352 353 355 355 356 357 354 351 354 350 349 346 351 356 357 358 356 349 343
347 350 348 348 353 355 354 352 352 350 354 355 353 353 353 354 355 353 354 354 353 355 355 356 354 354 354 354 354 352 355 356 353 351 352 351 353 356 357 358 355 347 342
344 348 348 349 349 353 355 355 355 355 356 356 355 354 353 354 354 356 356 356 355 356 355 356 354 353 354 354 355 352 352 351 353 353 352 352 353 357 357 358 355 347 343
345 344 348 349 351 352 352 353 354 356 356 355 355 355 354 352 347 351 352 353 355 355 355 355 354 353 352 351 351 351 351 353 352 355 354 349 352 358 359 355 353 348 344
348 347 348 347 348 349 348 347 348 354 355 355 355 356 354 351 349 349 348 349 351 354 354 353 350 350 354 354 351 352 352 353 352 350 355 351 353 358 359 350 355 349 345
348 348 348 348 347 345 345 346 345 349 353 355 355 356 355 353 351 354 351 349 349 348 349 350 353 353 353 353 355 356 353 355 354 351 353 353 353 358 359 349 356 350 345
348 348 349 348 347 346 343 339 340 343 350 353 353 354 355 354 355 353 355 355 355 354 351 348 348 351 354 355 356 356 356 356 355 353 354 356 353 358 359 352 356 352 347
349 348 348 349 348 346 345 344 342 345 346 350 351 351 352 353 352 345 350 354 354 354 351 350 346 349 348 349 350 354 354 353 351 350 351 355 355 359 360 358 347 350 349
351 350 349 349 349 348 347 347 346 346 347 347 347 348 348 346 348 345 345 350 352 351 351 349 351 350 348 350 351 351 353 354 352 351 351 355 353 357 358 358 352 344 343
Wind_Speed
9 8 8 7 6 5 4 4 4 4 6 5 4 4 4 4 4 3 3 1 2 3 1 3 4 4 4 5 5 6 6 7 8 8 10 10 9 8 7 8 7 5 6
7 8 7 5 4 4 5 3 4 5 6 5 5 5 4 4 3 2 2 3 2 1 3 3 5 3 5 5 6 6 7 8 9 9 9 9 8 8 6 7 5 4 5
5 4 4 3 2 2 2 2 3 4 5 7 6 4 3 3 2 2 2 2 3 5 3 3 4 4 5 6 7 7 8 8 8 8 8 8 8 8 7 6 4 3 3
4 3 2 3 3 3 2 2 2 3 5 6 5 4 3 2 2 2 2 3 4 3 6 5 4 5 5 6 7 7 8 8 9 9 9 8 8 8 7 6 5 4 2
5 4 3 4 4 3 2 3 4 4 5 5 4 3 2 2 2 2 3 4 4 4 5 7 7 7 7 7 7 7 7 8 9 9 9 8 8 8 8 7 6 6 4
5 4 4 5 3 2 1 2 2 4 3 2 3 3 3 4 4 5 5 5 6 6 6 7 7 7 8 8 8 8 8 9 8 8 9 9 9 9 9 9 9 8 8
4 5 6 6 5 4 2 2 3 3 2 2 2 4 5 6 6 7 6 7 7 7 7 8 8 8 8 9 8 9 9 9 9 10 10 10 10 11 11 11 12 12 12
6 5 9 7 6 5 5 4 2 2 2 3 1 2 3 1 3 2 4 5 6 7 8 8 9 10 9 8 9 10 10 10 11 12 12 13 13 13 14 14 15 15 15
5 5 6 7 6 5 4 6 3 3 3 4 2 3 2 3 6 2 2 3 4 5 7 8 9 8 9 9 10 10 11 12 13 15 17 17 18 19 19 19 18 18 18
7 7 7 8 6 5 5 5 5 2 3 3 2 2 2 2 3 4 3 2 2 4 5 6 6 7 9 9 10 11 12 14 16 18 20 22 22 22 21 21 22 22 22
9 8 9 9 9 8 8 6 5 4 3 3 3 1 1 2 2 3 3 4 2 3 4 5 5 6 7 9 11 12 14 16 18 19 20 19 19 19 18 18 18 19 20
8 10 9 9 10 8 9 7 7 6 5 3 3 1 1 2 3 3 2 3 4 3 4 6 5 5 7 9 10 12 13 16 18 18 19 18 20 21 21 20 18 15 14
10 11 12 9 9 10 8 7 8 8 7 4 3 2 1 1 1 2 3 4 3 3 3 4 8 9 8 11 12 15 16 17 19 17 16 24 23 22 19 18 16 14 13
12 12 13 11 11 8 8 8 8 8 7 6 5 5 3 2 1 1 3 5 4 3 4 3 2 7 9 11 13 16 15 20 19 14 21 24 23 19 18 19 18 16 14
12 14 14 13 12 11 10 9 9 9 8 7 7 8 6 4 3 2 2 2 3 4 4 3 4 9 10 10 13 17 17 19 15 18 23 23 19 16 19 18 16 16 14
17 13 15 15 13 13 13 12 9 10 10 9 8 8 8 7 6 5 4 4 3 4 5 6 8 10 13 11 14 17 16 18 17 21 20 22 14 19 18 15 15 14 12
19 16 15 15 15 15 15 15 14 11 11 10 9 9 9 9 8 7 6 6 6 5 10 12 10 11 13 13 16 17 15 15 16 19 23 14 19 18 15 13 13 12 13
23 21 16 14 15 15 16 16 17 14 14 12 11 10 10 9 9 9 8 9 9 8 9 13 13 13 13 14 15 16 15 14 14 16 17 16 19 15 13 12 12 12 10
27 22 21 18 16 16 17 19 18 17 16 15 13 13 12 11 11 10 9 9 10 9 10 12 15 14 14 14 16 16 14 14 15 19 15 18 20 14 14 13 12 11 11
30 27 26 24 22 18 18 17 17 18 17 17 17 15 15 14 14 12 11 11 11 11 12 13 15 16 15 14 14 16 17 16 18 16 14 18 18 15 14 14 13 12 13
28 30 28 27 26 23 21 20 19 18 18 17 18 19 18 18 18 16 13 13 12 13 13 14 16 17 16 14 15 15 16 17 18 10 12 18 16 12 12 12 13 13 14
28 28 29 29 29 29 29 30 26 19 19 19 18 21 22 22 22 20 19 19 19 15 16 16 18 18 18 16 15 15 16 16 13 12 15 19 16 12 10 7 15 15 15
28 27 28 27 31 34 36 37 36 28 23 22 22 21 21 21 23 20 19 20 21 22 23 22 22 21 22 18 16 16 15 15 18 20 18 18 15 13 7 12 15 15 16
26 28 26 28 31 34 39 41 41 38 30 28 27 26 24 25 23 22 19 18 18 19 20 22 25 24 22 19 17 16 16 16 16 17 13 11 15 13 7 10 16 16 16
23 25 25 25 28 35 37 38 37 33 33 33 32 31 30 29 30 32 27 23 21 23 21 24 25 26 26 24 22 18 17 17 18 17 14 15 11 13 11 11 11 12 15
24 23 24 25 27 31 35 36 35 30 30 32 33 35 36 38 35 38 35 26 26 27 22 21 21 22 23 24 22 22 18 19 19 18 9 9 13 12 7 5 5 9 10
Wind_Direction
125 124 123 114 111 111 98 84 74 38 14 22 61 88 73 66 69 72 70 53 62 26 25 349 7 8 12 352 360 352 351 347 347 351 358 358 350 347 343 337 347 15 36
132 138 134 120 108 100 107 80 28 20 20 46 90 89 65 62 63 79 56 19 44 354 334 340 332 339 325 335 328 334 331 332 342 348 337 334 343 333 338 335 357 25 44
176 174 154 138 135 122 97 54 42 34 43 79 85 72 52 46 57 54 18 6 348 350 344 336 327 327 323 316 312 313 319 331 322 322 335 336 333 329 332 338 353 21 44
204 174 178 180 157 135 93 67 70 65 74 78 77 59 30 32 10 341 346 344 329 330 331 337 332 332 334 326 315 316 315 317 322 331 332 331 332 331 330 332 334 343 359
231 241 224 179 156 135 95 65 73 87 78 72 68 32 4 342 330 330 321 320 307 311 310 313 327 327 330 330 328 323 322 323 325 328 329 332 331 331 329 326 322 314 302
227 244 188 184 185 166 95 71 103 102 85 56 18 352 319 301 308 305 305 302 299 303 298 308 311 317 322 322 322 326 333 333 333 334 334 334 332 329 327 324 316 307 297
238 227 217 210 211 199 185 135 108 152 81 51 3 330 302 284 283 283 286 286 289 297 296 301 309 310 316 326 327 332 332 334 337 343 341 337 335 331 325 318 312 306 299
230 248 223 214 208 200 201 199 154 135 148 150 36 323 358 63 359 304 302 293 295 296 300 304 300 309 315 315 324 327 328 331 336 337 333 330 330 326 320 315 310 302 297
217 207 186 200 212 196 197 197 197 195 181 194 190 4 340 18 340 346 349 328 322 311 311 318 322 316 321 316 323 325 333 332 333 331 329 328 323 319 315 310 308 304 294
212 208 205 207 212 204 197 196 199 197 163 159 183 281 287 306 346 349 21 352 338 331 328 331 324 328 332 328 326 332 333 331 332 330 330 328 325 320 314 308 302 298 296
210 212 212 209 224 228 223 209 205 205 205 181 173 154 271 285 276 315 355 21 31 19 2 351 337 345 343 336 330 332 336 337 340 342 344 342 341 338 330 323 311 301 292
211 217 213 212 214 217 212 218 222 223 217 209 186 177 312 316 348 348 345 8 351 1 355 9 21 16 9 4 356 353 359 357 351 349 350 2 356 343 334 330 328 321 313
214 218 218 214 218 220 226 229 232 233 234 220 211 230 200 340 3 358 356 10 348 355 4 47 60 47 28 19 10 2 3 357 349 353 359 353 350 344 346 347 343 337 334
217 221 221 220 215 228 232 231 228 224 230 233 236 234 245 261 279 360 13 354 349 3 352 354 336 20 9 360 0 359 350 351 347 348 348 348 347 347 346 344 344 341 342
225 222 218 219 223 229 229 238 235 237 234 234 238 241 242 252 260 263 319 341 342 337 345 6 345 337 349 344 344 347 344 346 348 347 345 345 349 345 344 346 348 347 349
229 225 223 225 222 233 229 233 236 238 235 237 236 237 239 247 257 254 260 265 257 300 306 309 316 317 333 334 332 340 340 347 341 347 350 347 1 341 339 343 348 351 354
228 234 231 226 225 227 231 230 232 227 228 229 229 234 240 243 247 254 251 250 259 264 285 303 298 311 322 322 329 336 340 342 336 343 349 356 353 342 340 344 352 354 349
231 233 238 236 223 223 228 230 231 229 237 229 233 234 237 234 242 246 249 250 257 256 269 290 302 305 307 316 324 332 334 335 335 338 350 350 352 346 345 345 347 350 360
233 234 236 238 232 227 228 232 236 238 239 237 235 235 235 233 239 236 238 250 261 265 267 278 292 298 305 317 322 326 330 334 335 333 337 345 345 349 346 347 345 344 347
237 235 237 237 238 234 227 229 232 238 239 240 238 237 237 233 236 240 243 249 261 262 269 272 283 292 299 312 318 323 328 330 327 330 335 341 341 339 338 346 338 330 332
238 241 240 238 239 237 237 233 232 232 236 241 237 238 241 241 245 244 246 254 255 262 269 276 281 286 289 302 312 316 314 321 327 321 333 334 335 327 318 329 325 321 324
239 240 239 240 240 238 241 240 237 232 235 238 238 238 241 248 251 252 255 257 256 258 263 269 277 282 287 291 299 303 310 317 317 318 323 323 327 322 311 308 314 315 318
232 233 239 239 240 243 243 245 245 238 236 236 240 239 240 243 251 248 255 259 260 260 259 260 264 268 276 283 289 292 297 296 294 304 311 309 317 317 294 297 308 316 316
233 232 235 238 242 246 250 251 251 248 242 241 241 241 241 243 241 246 246 249 254 259 263 263 259 265 268 275 274 279 284 286 293 301 300 294 317 314 289 286 303 310 311
238 237 238 236 237 248 251 253 250 241 242 242 243 243 242 246 247 255 252 250 254 258 263 270 269 266 272 273 269 271 273 282 290 296 293 290 303 312 299 288 277 311 312
244 243 244 240 241 247 254 256 253 239 242 241 244 244 245 244 246 256 254 248 252 256 259 263 266 272 268 264 264 260 260 266 278 288 293 258 290 308 304 253 258 284 311